Regional Weather Roundup
Issued by NWS

Home | Current Version | Previous Version | Graphics & Text | Print | Product List | Glossary On
Versions: 1 2 3 4 5 6 7 8 9 10 11 12 13 14 15 16 17 18 19 20 21 22 23 24 25 26 27 28 29 30 31 32 33 34 35 36 37 38 39 40 41 42 43 44 45 46 47 48 49 50
000
ASUS45 KCYS 220910
RWRWY

WYOMING REGIONAL WEATHER ROUNDUP
NATIONAL WEATHER SERVICE CHEYENNE WY
300 AM MDT TUE JUL 22 2014

NOTE:  "FAIR" INDICATES FEW OR NO CLOUDS BELOW 12,000 FEET
WITH NO SIGNIFICANT WEATHER AND/OR OBSTRUCTIONS TO VISIBILITY.

WYZ001-221000-
YELLOWSTONE NATIONAL PARK

CITY           SKY/WX    TMP DP  RH WIND       PRES   REMARKS
LK YELLOWSTONE   N/A     43  42  97 W3        30.43R
W YELLOWSTONE  NOT AVBL

$$
WYZ002>013-054>058-071-098>099-221000-
NORTHERN WYOMING

CITY           SKY/WX    TMP DP  RH WIND       PRES   REMARKS
JACKSON        PTCLDY    48  46  93 NW7       30.34R
CODY           CLOUDY    70  41  35 SW6       30.21R
GREYBULL       PTCLDY    65  51  60 CALM      30.17R
WORLAND        MOCLDY    66  47  50 S8        30.17S
SHERIDAN       PTCLDY    59  55  87 CALM      30.16R
BUFFALO        PTCLDY    65  49  56 S9        30.23R
GILLETTE       PTCLDY    61  55  81 S13       30.18R
HULETT         FAIR      57  54  88 MISG      30.19
NEWCASTLE      FAIR      63  52  67 W5        30.21  THUNDER

$$
WYZ014>020-022>026-101>103-221000-
CENTRAL WYOMING

CITY           SKY/WX    TMP DP  RH WIND       PRES   REMARKS
BIG PINEY      CLEAR     49  39  68 S6        30.38R
PINEDALE       MOSUNNY   50  39  66 NW6       30.38R
DUBOIS         FAIR      50  37  62 NW3       30.37S
LANDER         CLEAR     63  40  42 SW9       30.27R
RIVERTON       PTCLDY    60  40  47 N5        30.27S
CASPER         MOCLDY    63  50  62 VRB3      30.25F
DOUGLAS        PTCLDY    62  52  69 CALM      30.27R

$$
WYZ021-027>030-104>119-221000-
SOUTHERN WYOMING

CITY           SKY/WX    TMP DP  RH WIND       PRES   REMARKS
EVANSTON       CLOUDY    59  37  44 NE3       30.38R
KEMMERER       SUNNY     54  37  54 CALM      30.40R
FORT BRIDGER   FAIR      59  38  47 SE7       30.41R
ROCK SPRINGS   CLEAR     60  32  34 S3        30.34
DIXON          FAIR      51  36  56 CALM      30.34R
RAWLINS        CLEAR     59  36  42 N12       30.35R
SARATOGA       FAIR      54  37  54 CALM      30.36S
LARAMIE        PTCLDY    53  38  56 S8        30.37R
CHEYENNE       PTCLDY    67  42  40 NW13      30.28R
TORRINGTON     CLEAR     67  51  56 NE8       30.13R
PINE BLUFFS    FAIR      68  43  40 W7        30.20R

$$



USA.gov is the U.S. government's official web portal to all federal, state and local government web resources and services.